Weather History for Campo, CA

Change the Weather History Date:

Friday, April 11, 2014

  Actual Average Record
Temperature  
Mean Temperature 62 °F 54 °F  
Max Temperature 80 °F 71 °F 87 °F (1988)
Min Temperature 43 °F 37 °F 23 °F (1963)
Degree Days  
Heating Degree Days 3 11  
Month to date heating degree days 118 128  
Since 1 July heating degree days 2360 2596  
Cooling Degree Days 0 0  
Month to date cooling degree days 1 0  
Year to date cooling degree days 1 0  
Growing Degree Days 12 (Base 50)    
Moisture  
Dew Point 24 °F    
Average Humidity 27    
Maximum Humidity 45    
Minimum Humidity 8    
Precipitation  
Precipitation 0.00 in 0.03 in 0.86 in (1967)
Month to date precipitation 0.28 0.47  
Year to date precipitation 2.35 9.37  
Since 1 July precipitation 6.54 14.95  
Snow  
Snow 0.00 in - - ()
Month to date snowfall 0.0  
Year to date snowfall 0.0  
Since 1 July snowfall 0.0  
Snow Depth 0.00 in    
Sea Level Pressure  
Sea Level Pressure 29.85 in    
Wind  
Wind Speed 9 mph (SSW)    
Max Wind Speed 21 mph    
Max Gust Speed 25 mph    
T = Trace of Precipitation, MM = Missing Value Source: NWS Daily Summary

Daily Weather History Graph

Daily Weather History Graph

Search for Another Location

Airport:

Trip Planner

Search our weather history database for the weather conditions in past years. The results will help you decide how hot, cold, wet, or windy it might be!

Date:

Astronomy

Apr. 11, 2014 Rise Set
Actual Time 6:21 AM PDT 7:13 PM PDT
Civil Twilight 5:56 AM PDT 7:38 PM PDT
Nautical Twilight 5:26 AM PDT 8:07 PM PDT
Astronomical Twilight 4:56 AM PDT 8:38 PM PDT
Moon 4:07 PM PDT (4/11) 4:07 AM PDT (4/11)
Length of Visible Light 13h 42m
Length of Day
12h 51m
Waxing Gibbous, 87% of the Moon is Illuminated
Apr 11
Waxing Gibbous
Apr 15
Full
Apr 22
Last Quarter
Apr 28
New
May 6
First Quarter

Hourly Weather History & Observations

Time (PDT) Temp. Windchill Dew Point Humidity Pressure Visibility Wind Dir Wind Speed Gust Speed Precip Events Conditions
12:52 AM 51.1 °F - 23.0 °F 33% 29.89 in - ENE 5.8 mph - N/A   Unknown
1:52 AM 51.1 °F - 25.0 °F 36% 29.87 in - NE 4.6 mph - N/A   Unknown
2:52 AM 53.1 °F - 26.1 °F 35% 29.86 in - NE 3.5 mph - N/A   Unknown
3:52 AM 53.1 °F - 25.0 °F 34% 29.86 in - NE 6.9 mph - N/A   Unknown
4:52 AM 46.0 °F 44.8 °F 26.1 °F 46% 29.87 in - NE 3.5 mph - N/A   Unknown
5:52 AM 46.0 °F 42.5 °F 24.1 °F 42% 29.88 in - ENE 6.9 mph - N/A   Unknown
6:52 AM 45.0 °F 41.2 °F 21.9 °F 40% 29.89 in - ENE 6.9 mph - N/A   Unknown
7:52 AM 57.0 °F - 23.0 °F 27% 29.89 in - ENE 3.5 mph - N/A   Unknown
8:52 AM 66.9 °F - 21.9 °F 18% 29.88 in - Calm Calm - N/A   Unknown
9:52 AM 75.0 °F - 15.1 °F 10% 29.88 in - SW 4.6 mph - N/A   Unknown
10:52 AM 78.1 °F - 12.0 °F 8% 29.88 in - SW 10.4 mph - N/A   Unknown
11:52 AM 79.0 °F - 15.1 °F 9% 29.87 in - WSW 15.0 mph 20.7 mph N/A   Unknown
12:52 PM 80.1 °F - 16.0 °F 9% 29.86 in - WSW 12.7 mph 20.7 mph N/A   Unknown
1:52 PM 80.1 °F - 17.1 °F 9% 29.84 in - SW 15.0 mph 23.0 mph N/A   Unknown
2:52 PM 80.1 °F - 17.1 °F 9% 29.81 in - SW 16.1 mph 23.0 mph N/A   Unknown
3:52 PM 78.1 °F - 16.0 °F 10% 29.80 in - SW 17.3 mph 23.0 mph N/A   Unknown
4:52 PM 77.0 °F - 17.1 °F 10% 29.80 in - WSW 15.0 mph - N/A   Unknown
5:52 PM 73.9 °F - 24.1 °F 16% 29.80 in - SW 16.1 mph - N/A   Unknown
6:52 PM 66.9 °F - 35.1 °F 31% 29.82 in - SSW 11.5 mph - N/A   Unknown
7:52 PM 61.0 °F - 39.9 °F 46% 29.82 in - SSW 12.7 mph - N/A   Unknown
8:52 PM 57.9 °F - 41.0 °F 53% 29.83 in - Calm Calm - N/A   Unknown
9:52 PM 48.9 °F - 35.1 °F 59% 29.84 in - NE 4.6 mph - N/A   Unknown
10:52 PM 48.0 °F - 35.1 °F 61% 29.83 in - North 3.5 mph - N/A   Unknown
11:52 PM 44.1 °F - 35.1 °F 71% 29.84 in - Calm Calm - N/A   Unknown